Vertical_Velocity
-1 11 -2 -3 1 1 2 3 2 -4 1 5 0 -1 -3 -2 2 2 2 0 -1 -0 -1 1 -0 0 -0 -0 0 -3 -4 -3 1 -7 4 0 -1 -0 -2 0 -1 -1 -1 0
10 -1 -6 0 1 2 1 2 -3 -3 0 7 -2 -6 0 -0 -3 -3 -0 2 -1 4 8 -3 -1 1 -3 0 1 2 4 -9 -4 0 -1 2 1 -3 0 -4 -1 -0 -1 -1
4 6 -1 1 1 4 -2 2 -1 8 -3 2 1 2 -2 1 -2 0 -2 -2 2 -4 1 -0 -3 -2 3 0 -4 -0 -2 11 -1 2 7 -1 2 0 0 -2 -2 -3 -1 -1
-1 -1 1 1 0 4 4 1 1 1 4 3 4 1 0 0 1 0 -1 -1 -0 -2 -3 6 1 -3 0 2 1 -3 -2 -0 -7 14 0 -2 1 3 1 -5 -1 5 -2 -0
9 1 1 3 -7 3 -3 2 3 2 2 4 3 10 13 -0 -1 -1 -0 0 -4 0 -2 -1 -2 11 4 -6 -1 0 -1 -1 -0 2 -1 8 1 -0 -4 4 10 -3 3 7
-3 -1 4 -5 -2 0 -1 5 3 3 4 8 3 8 6 1 6 -1 -1 -0 -1 -1 4 -2 -1 10 -3 -3 -7 2 1 3 -1 -3 -1 -5 -4 9 4 -3 -1 -2 -4 -2
4 -2 -0 4 9 4 8 10 -2 3 10 5 1 3 2 1 1 2 1 1 1 2 -3 -2 2 -1 -2 -2 1 2 -4 3 0 2 -2 -4 -4 3 3 -2 -3 -0 -4 -7
3 18 2 2 3 9 -1 8 8 1 2 5 2 2 12 2 -0 -1 1 -1 -3 -1 -0 6 -1 -2 -1 -2 -4 0 1 -1 -1 4 -1 3 -1 3 -3 -6 14 -3 -2 3
2 3 4 1 -0 10 8 5 9 6 1 10 0 -1 10 0 1 0 1 1 2 -1 -5 -3 3 4 -2 -4 0 1 1 0 -1 -5 -0 -3 -3 -3 1 1 -6 -5 -3 9
-1 2 1 5 3 3 11 7 13 5 1 -1 1 -1 8 -1 2 1 -1 1 2 2 -1 -0 -3 2 3 5 3 -1 3 5 3 -1 4 -0 6 -2 0 1 -2 3 5 -4
2 10 3 7 2 2 8 3 3 9 4 7 -0 5 4 3 2 1 2 0 1 2 0 3 0 -2 -1 4 -1 1 3 1 -0 5 3 -2 -3 -2 -1 -2 -2 -3 2 1
-1 3 1 -5 4 2 2 -0 2 7 2 1 6 -2 1 2 1 -0 1 -0 1 2 2 -3 3 2 1 -1 -2 -2 2 2 1 3 -0 3 -2 -1 3 -1 -1 -2 -3 1
4 -3 1 -1 22 10 2 -1 0 1 2 -3 7 5 2 -0 -0 1 -0 -1 1 -0 1 1 -3 -1 2 3 3 1 -1 -2 -1 2 -1 1 1 0 -2 -2 -0 2 0 -1
2 1 6 4 9 6 1 0 0 7 6 -2 -5 -5 -4 2 0 0 0 -0 -1 -1 0 3 -1 -1 -1 5 1 2 4 4 -2 -3 -0 -3 -6 -5 -0 -1 0 -2 0 0
7 3 6 -3 -1 2 1 1 -2 4 -4 14 -7 1 2 2 1 2 2 0 -1 -0 1 1 5 0 -0 -2 -2 1 4 -4 2 3 2 0 1 0 1 -4 4 2 -1 -2
-2 -5 2 -5 -2 2 1 -1 0 -0 -2 1 2 -2 0 1 0 -1 1 1 0 0 2 -1 1 2 1 1 -1 -4 -5 -3 0 -1 -3 1 -1 -1 -0 3 1 -2 -3 -3
4 3 3 -10 1 1 4 -8 -2 -3 -0 1 5 6 0 3 0 1 1 0 1 0 -2 1 1 -1 3 4 3 -1 -1 1 -5 -1 2 1 4 -2 -3 -1 -4 -5 -6 -1
1 2 3 -3 2 7 -3 0 3 3 -1 -1 -0 1 0 -0 2 1 1 0 1 -2 -1 -3 1 2 5 4 7 4 4 2 -2 -1 2 -3 -2 1 0 1 3 1 -1 -4
2 2 0 4 0 -6 2 3 3 7 -0 0 1 1 1 1 1 4 -0 -1 1 -1 -0 0 -1 1 -1 1 4 5 4 6 8 -5 -1 1 -4 -3 -3 2 2 2 3 5
1 2 8 3 5 1 10 2 -1 1 4 1 0 1 1 3 6 11 -2 0 0 -1 -3 -2 2 -0 1 1 1 3 1 2 4 15 -7 -1 0 -0 -4 -9 -4 0 -1 -9
3 2 -0 -0 0 1 4 1 -2 18 15 0 0 1 1 1 6 1 -3 2 -2 -2 -2 -5 -4 1 1 -0 0 -2 3 4 3 5 10 -1 -3 -1 1 1 -2 -3 -4 7
1 3 -1 2 3 4 0 3 12 10 1 1 1 0 1 0 1 -2 0 -1 -0 -1 -4 -4 -1 -2 0 2 1 3 -1 -0 -1 1 9 8 0 -0 -4 -2 1 1 2 1
4 6 8 6 11 2 -0 1 -2 -0 0 -0 -2 -2 1 -0 1 0 -1 -1 1 -1 -1 -2 -4 -4 -2 -0 2 2 6 0 2 1 1 6 13 7 3 -4 -6 -3 -4 -3
0 -2 2 4 1 -0 -1 2 -3 1 1 -2 -2 -0 -0 1 1 -1 -0 0 -0 -2 -4 -1 -3 -4 -10 -0 4 2 2 0 1 0 2 2 4 2 2 11 0 -2 -3 -0
2 4 -0 -5 -5 -1 -6 5 2 -1 1 -5 -4 -0 -0 2 -4 2 0 1 -0 0 1 1 -3 -5 -7 -6 -2 3 1 1 -1 -2 2 1 2 3 16 -28 23 26 19 12
2 -4 6 -2 2 6 -4 -7 5 2 -2 -1 1 -4 -4 4 -2 1 -2 0 2 -2 -2 0 -1 -2 -6 0 -8 -2 3 0 1 0 -1 3 -1 -1 4 5 4 5 7 10
Height
1526 1524 1522 1513 1519 1523 1523 1521 1519 1508 1507 1510 1502 1499 1494 1494 1502 1503 1505 1510 1514 1517 1522 1528 1532 1535 1539 1542 1545 1547 1550 1551 1554 1556 1559 1559 1561 1565 1567 1571 1571 1572 1574 1575
1525 1522 1512 1518 1521 1522 1519 1518 1511 1505 1508 1509 1501 1497 1490 1491 1492 1500 1502 1505 1509 1513 1517 1524 1528 1531 1534 1538 1540 1543 1545 1549 1551 1555 1556 1560 1561 1563 1567 1569 1570 1570 1572 1573
1517 1511 1516 1518 1517 1519 1512 1512 1510 1513 1505 1501 1502 1490 1491 1493 1496 1497 1499 1501 1504 1509 1512 1518 1522 1526 1529 1533 1536 1539 1541 1544 1549 1551 1553 1555 1557 1560 1561 1565 1567 1569 1570 1572
1514 1512 1518 1516 1516 1513 1513 1505 1509 1508 1508 1515 1502 1512 1491 1489 1489 1495 1495 1497 1499 1503 1508 1511 1516 1522 1526 1530 1534 1536 1537 1540 1544 1547 1550 1552 1555 1558 1560 1562 1565 1568 1568 1570
1511 1513 1515 1516 1511 1509 1511 1507 1507 1505 1502 1501 1499 1503 1490 1485 1487 1487 1489 1492 1495 1497 1502 1507 1511 1516 1522 1527 1529 1531 1533 1536 1540 1542 1545 1550 1552 1555 1556 1560 1562 1563 1566 1568
1511 1511 1512 1508 1506 1508 1506 1506 1499 1496 1497 1508 1503 1507 1495 1488 1492 1488 1487 1488 1489 1492 1497 1503 1508 1513 1518 1520 1523 1527 1529 1531 1534 1538 1542 1545 1549 1552 1554 1556 1558 1561 1563 1566
1505 1503 1505 1508 1507 1500 1506 1501 1508 1511 1507 1507 1494 1509 1499 1486 1490 1491 1489 1488 1487 1489 1493 1499 1504 1508 1513 1516 1520 1526 1527 1530 1533 1534 1539 1541 1545 1549 1550 1553 1555 1558 1560 1563
1506 1515 1502 1501 1500 1500 1496 1497 1507 1529 1511 1499 1488 1505 1493 1487 1490 1490 1489 1488 1488 1490 1493 1493 1498 1505 1510 1513 1517 1520 1521 1524 1529 1532 1534 1538 1543 1545 1548 1550 1553 1555 1559 1561
1506 1505 1496 1498 1497 1498 1499 1503 1489 1494 1492 1503 1488 1485 1486 1481 1486 1487 1486 1486 1487 1490 1492 1496 1497 1500 1504 1508 1512 1516 1519 1522 1526 1529 1531 1534 1537 1542 1546 1548 1549 1552 1555 1557
1498 1509 1489 1494 1497 1498 1497 1492 1500 1491 1519 1520 1493 1496 1490 1488 1486 1486 1487 1487 1487 1488 1490 1493 1497 1502 1504 1507 1510 1512 1515 1518 1521 1525 1528 1531 1536 1539 1543 1544 1545 1549 1551 1553
1498 1501 1496 1492 1490 1487 1494 1494 1493 1488 1494 1505 1506 1493 1477 1485 1488 1489 1488 1489 1489 1489 1490 1492 1495 1500 1503 1507 1508 1511 1512 1515 1519 1522 1525 1528 1532 1535 1538 1541 1542 1545 1547 1549
1501 1494 1499 1489 1482 1487 1486 1486 1484 1496 1502 1493 1499 1495 1476 1484 1490 1492 1491 1491 1491 1491 1491 1492 1495 1498 1501 1504 1506 1508 1511 1513 1517 1520 1524 1526 1529 1532 1534 1537 1539 1541 1544 1546
1502 1498 1505 1492 1483 1484 1487 1482 1480 1477 1477 1493 1503 1495 1478 1485 1490 1494 1495 1494 1492 1492 1492 1492 1493 1496 1499 1502 1504 1506 1508 1511 1515 1518 1521 1524 1526 1528 1531 1534 1536 1538 1540 1542
1509 1495 1499 1504 1490 1489 1491 1485 1484 1482 1487 1482 1482 1481 1476 1489 1494 1496 1497 1495 1492 1492 1493 1493 1494 1495 1496 1499 1500 1503 1505 1508 1510 1513 1516 1519 1522 1525 1528 1531 1533 1535 1537 1539
1503 1504 1495 1492 1488 1491 1492 1489 1484 1488 1484 1489 1480 1482 1478 1492 1496 1498 1498 1496 1494 1494 1493 1494 1494 1494 1494 1496 1499 1502 1504 1507 1510 1511 1513 1515 1518 1520 1523 1525 1529 1531 1534 1536
1503 1506 1500 1499 1489 1487 1492 1485 1481 1479 1480 1477 1479 1481 1486 1495 1498 1499 1499 1497 1496 1495 1494 1494 1493 1493 1494 1494 1495 1497 1500 1503 1505 1507 1510 1512 1514 1516 1518 1520 1523 1526 1529 1532
1506 1502 1502 1501 1486 1486 1495 1481 1477 1474 1472 1477 1484 1480 1486 1493 1498 1500 1499 1499 1497 1496 1495 1493 1493 1493 1493 1494 1494 1494 1496 1499 1501 1503 1506 1508 1510 1512 1515 1517 1519 1522 1525 1528
1505 1507 1501 1498 1492 1512 1476 1479 1479 1479 1476 1476 1484 1490 1494 1495 1499 1501 1501 1500 1499 1498 1497 1495 1492 1492 1492 1492 1493 1493 1494 1495 1497 1500 1502 1505 1508 1510 1512 1514 1515 1518 1520 1523
1502 1503 1501 1503 1492 1480 1476 1482 1486 1486 1480 1490 1489 1493 1495 1495 1498 1500 1501 1502 1500 1499 1498 1496 1494 1492 1490 1489 1489 1489 1490 1492 1492 1495 1498 1500 1504 1507 1510 1512 1514 1516 1518 1521
1501 1501 1501 1492 1504 1501 1488 1490 1493 1491 1491 1494 1495 1496 1496 1494 1490 1496 1502 1502 1500 1499 1498 1496 1494 1493 1492 1490 1488 1488 1488 1488 1489 1490 1493 1496 1499 1502 1505 1508 1511 1513 1515 1517
1498 1498 1500 1491 1497 1483 1491 1494 1494 1498 1501 1499 1498 1498 1498 1497 1501 1503 1502 1502 1500 1499 1498 1496 1494 1492 1491 1488 1486 1485 1487 1487 1488 1489 1489 1490 1494 1497 1501 1503 1506 1508 1511 1515
1497 1495 1490 1490 1496 1499 1496 1494 1496 1501 1500 1500 1500 1500 1501 1502 1502 1502 1502 1501 1500 1498 1497 1495 1493 1491 1489 1487 1485 1484 1484 1484 1483 1484 1485 1485 1487 1491 1494 1498 1501 1503 1505 1507
1503 1494 1495 1493 1491 1497 1498 1499 1501 1501 1501 1501 1502 1501 1500 1500 1500 1500 1500 1499 1498 1497 1495 1493 1491 1489 1487 1486 1484 1482 1480 1479 1479 1480 1481 1482 1482 1483 1486 1488 1491 1494 1496 1499
1495 1500 1497 1498 1490 1496 1498 1499 1500 1500 1500 1500 1500 1499 1498 1497 1496 1496 1495 1494 1493 1493 1491 1490 1489 1487 1485 1483 1482 1481 1479 1475 1474 1474 1476 1476 1477 1477 1479 1481 1480 1481 1484 1486
1496 1502 1496 1495 1494 1494 1496 1496 1497 1498 1498 1498 1496 1495 1493 1492 1490 1489 1488 1488 1487 1486 1485 1484 1484 1482 1480 1479 1477 1476 1475 1473 1471 1471 1472 1471 1471 1472 1473 1476 1477 1475 1477 1479
1493 1496 1495 1490 1492 1495 1496 1496 1495 1495 1495 1493 1492 1490 1489 1487 1484 1483 1481 1480 1480 1479 1478 1476 1475 1474 1473 1472 1471 1471 1469 1469 1467 1467 1468 1468 1468 1468 1469 1468 1471 1473 1476 1478